User: anonymous   Login
Location: Unspecified
(0.0000°N, 0.0000°E)
Time: 16:30:56
(UTC+00:00)
Language:

OPTUS D2 - Orbit

View from above orbital plane
View from above orbital plane
View from above satellite
View from above satellite

Ground track
Ground track

The orbit data is extracted from the following two-line orbital elements,

1 32252U 07044A   18113.86287838 -.00000206  00000-0  00000+0 0  9991
2 32252   0.0114 216.9593 0003671 173.7890 283.7500  1.00270087 38594
Epoch (UTC): 23 April 2018 20:42:32
Eccentricity: 0.0003671
inclination: 0.0114°
perigee height: 35771 km
apogee height: 35802 km
right ascension of ascending node: 216.9593°
argument of perigee: 173.7890°
revolutions per day: 1.00270087
mean anomaly at epoch: 283.7500°
orbit number at epoch: 3859

The dashed part of the orbit path shows where the satellite is in the earth's shadow,  

DLR